Hourly Weather Ludvika

Today, 20 June, Sunday

Time Temperature Precipitation Wind Pressure Humidity
00:00 +16°C° 0 mm 1 mps 742 mmHg 96%
01:00 +16°C° 0 mm 1 mps 742 mmHg 97%
02:00 +16°C° 0 mm 1 mps 742 mmHg 97%
03:00 +16°C° 0 mm 1 mps 742 mmHg 97%
04:00 +16°C° 0 mm 1 mps 741 mmHg 96%
05:00 +16°C° 0 mm 1 mps 742 mmHg 91%
06:00 +17°C° 0 mm 2 mps 742 mmHg 87%
07:00 +18°C° 0 mm 2 mps 742 mmHg 82%
08:00 +20°C° 0 mm 2 mps 742 mmHg 71%
09:00 +23°C° 0 mm 2 mps 742 mmHg 60%
10:00 +25°C° 0 mm 2 mps 742 mmHg 50%
11:00 +26°C° 0 mm 2 mps 742 mmHg 45%
12:00 +28°C° 0 mm 3 mps 742 mmHg 40%
13:00 +29°C° 0 mm 3 mps 741 mmHg 35%
14:00 +29°C° 0 mm 3 mps 741 mmHg 35%
15:00 +30°C° 0 mm 3 mps 740 mmHg 34%
16:00 +31°C° 0 mm 3 mps 739 mmHg 34%
17:00 +28°C° 0.7 mm 4 mps 739 mmHg 51%
18:00 +25°C° 0.7 mm 4 mps 738 mmHg 68%
19:00 +21°C° 0.7 mm 5 mps 738 mmHg 85%
20:00 +20°C° 1 mm 3 mps 738 mmHg 89%
21:00 +19°C° 1 mm 2 mps 738 mmHg 93%
22:00 +19°C° 1 mm 1 mps 738 mmHg 97%
23:00 +19°C° 1.1 mm 1 mps 738 mmHg 98%

Tomorrow, 21 June, Monday

Time Temperature Precipitation Wind Pressure Humidity
00:00 +19°C° 1.1 mm 1 mps 737 mmHg 98%
01:00 +19°C° 1.1 mm 1 mps 737 mmHg 99%
02:00 +17°C° 0 mm 2 mps 737 mmHg 97%
03:00 +16°C° 0 mm 3 mps 737 mmHg 95%
04:00 +15°C° 0 mm 4 mps 737 mmHg 94%
05:00 +14°C° 0 mm 4 mps 738 mmHg 90%
06:00 +14°C° 0 mm 4 mps 738 mmHg 87%
07:00 +13°C° 0 mm 4 mps 739 mmHg 84%
08:00 +15°C° 0 mm 4 mps 739 mmHg 73%
09:00 +19°C° 0 mm 4 mps 739 mmHg 61%
10:00 +21°C° 0 mm 4 mps 739 mmHg 50%
11:00 +22°C° 0 mm 4 mps 740 mmHg 47%
12:00 +22°C° 0 mm 4 mps 740 mmHg 43%
13:00 +23°C° 0 mm 4 mps 740 mmHg 40%
14:00 +23°C° 0 mm 4 mps 740 mmHg 41%
15:00 +25°C° 0 mm 3 mps 740 mmHg 41%
16:00 +25°C° 0 mm 3 mps 740 mmHg 42%
17:00 +23°C° 0 mm 2 mps 740 mmHg 49%
18:00 +21°C° 0 mm 2 mps 740 mmHg 57%
19:00 +20°C° 0 mm 1 mps 740 mmHg 64%
20:00 +20°C° 0.1 mm 1 mps 740 mmHg 68%
21:00 +18°C° 0.1 mm 2 mps 740 mmHg 73%
22:00 +17°C° 0.1 mm 2 mps 740 mmHg 77%
23:00 +17°C° 0.6 mm 2 mps 740 mmHg 83%

Day after tomorrow, 22 June, Tuesday

Time Temperature Precipitation Wind Pressure Humidity
00:00 +16°C° 0.6 mm 3 mps 740 mmHg 89%
01:00 +15°C° 0.6 mm 4 mps 740 mmHg 94%
02:00 +14°C° 1.1 mm 4 mps 740 mmHg 95%
03:00 +14°C° 1.1 mm 4 mps 740 mmHg 96%
04:00 +13°C° 1.1 mm 4 mps 740 mmHg 97%
05:00 +13°C° 1.4 mm 4 mps 740 mmHg 97%
06:00 +13°C° 1.4 mm 4 mps 741 mmHg 97%
07:00 +12°C° 1.4 mm 4 mps 741 mmHg 97%
08:00 +12°C° 0.9 mm 4 mps 741 mmHg 97%
09:00 +12°C° 0.9 mm 4 mps 741 mmHg 97%
10:00 +12°C° 0.9 mm 4 mps 741 mmHg 97%
11:00 +12°C° 0.5 mm 4 mps 741 mmHg 97%
12:00 +12°C° 0.5 mm 4 mps 741 mmHg 96%
13:00 +12°C° 0.5 mm 3 mps 742 mmHg 95%
14:00 +12°C° 0 mm 3 mps 742 mmHg 94%
15:00 +12°C° 0 mm 3 mps 742 mmHg 93%
16:00 +12°C° 0 mm 3 mps 742 mmHg 91%
17:00 +12°C° 0.1 mm 3 mps 743 mmHg 92%
18:00 +12°C° 0.1 mm 2 mps 743 mmHg 92%
19:00 +12°C° 0.1 mm 2 mps 743 mmHg 93%
20:00 +12°C° 0 mm 2 mps 743 mmHg 93%
21:00 +12°C° 0 mm 1 mps 744 mmHg 94%
22:00 +12°C° 0 mm 1 mps 744 mmHg 95%
23:00 +12°C° 0 mm 1 mps 744 mmHg 95%

23 June, Wednesday

Time Temperature Precipitation Wind Pressure Humidity
00:00 +12°C° 0 mm 1 mps 744 mmHg 95%
01:00 +12°C° 0 mm 1 mps 745 mmHg 95%
02:00 +12°C° 0 mm 1 mps 745 mmHg 95%
03:00 +12°C° 0 mm 1 mps 745 mmHg 94%
04:00 +12°C° 0 mm 1 mps 745 mmHg 94%
05:00 +13°C° 0 mm 1 mps 745 mmHg 92%
06:00 +13°C° 0 mm 1 mps 746 mmHg 90%
07:00 +13°C° 0 mm 1 mps 746 mmHg 88%
08:00 +14°C° 0 mm 1 mps 746 mmHg 82%
09:00 +16°C° 0 mm 1 mps 747 mmHg 76%
10:00 +18°C° 0 mm 1 mps 747 mmHg 70%
11:00 +20°C° 0 mm 1 mps 747 mmHg 63%
12:00 +21°C° 0 mm 1 mps 747 mmHg 56%
13:00 +23°C° 0 mm 1 mps 747 mmHg 49%
14:00 +24°C° 0 mm 1 mps 747 mmHg 47%
15:00 +24°C° 0 mm 1 mps 747 mmHg 46%
16:00 +25°C° 0 mm 1 mps 747 mmHg 44%
17:00 +24°C° 0 mm 1 mps 747 mmHg 51%
18:00 +23°C° 0 mm 2 mps 747 mmHg 58%
19:00 +21°C° 0 mm 2 mps 747 mmHg 64%
20:00 +19°C° 0 mm 2 mps 747 mmHg 74%
21:00 +18°C° 0 mm 1 mps 747 mmHg 84%
22:00 +15°C° 0 mm 1 mps 748 mmHg 93%
23:00 +14°C° 0 mm 1 mps 748 mmHg 94%

24 June, Thursday

Time Temperature Precipitation Wind Pressure Humidity
00:00 +14°C° 0 mm 1 mps 748 mmHg 94%
01:00 +12°C° 0 mm 0 mps 748 mmHg 95%
02:00 +13°C° 0 mm 0 mps 748 mmHg 94%
03:00 +13°C° 0 mm 0 mps 748 mmHg 93%
04:00 +13°C° 0 mm 0 mps 748 mmHg 92%
05:00 +16°C° 0 mm 1 mps 748 mmHg 86%
06:00 +18°C° 0 mm 1 mps 748 mmHg 80%
07:00 +19°C° 0 mm 1 mps 748 mmHg 74%
08:00 +20°C° 0 mm 2 mps 748 mmHg 65%
09:00 +21°C° 0 mm 2 mps 748 mmHg 56%
10:00 +23°C° 0 mm 2 mps 748 mmHg 48%
11:00 +24°C° 0 mm 2 mps 747 mmHg 44%
12:00 +25°C° 0 mm 2 mps 747 mmHg 41%
13:00 +26°C° 0 mm 2 mps 747 mmHg 38%
14:00 +26°C° 0 mm 2 mps 746 mmHg 38%
15:00 +26°C° 0 mm 2 mps 746 mmHg 39%
16:00 +26°C° 0 mm 2 mps 746 mmHg 39%
17:00 +25°C° 0 mm 2 mps 746 mmHg 45%
18:00 +24°C° 0 mm 2 mps 745 mmHg 51%
19:00 +23°C° 0 mm 2 mps 745 mmHg 56%
20:00 +21°C° 0 mm 2 mps 745 mmHg 63%
21:00 +19°C° 0 mm 2 mps 745 mmHg 69%
22:00 +17°C° 0 mm 2 mps 745 mmHg 76%
23:00 +16°C° 0 mm 1 mps 745 mmHg 79%

25 June, Friday

Time Temperature Precipitation Wind Pressure Humidity
00:00 +16°C° 0 mm 1 mps 745 mmHg 82%
01:00 +16°C° 0 mm 1 mps 745 mmHg 85%
02:00 +15°C° 0 mm 0 mps 745 mmHg 86%
03:00 +15°C° 0 mm 0 mps 745 mmHg 88%
04:00 +15°C° 0 mm 0 mps 745 mmHg 89%
05:00 +16°C° 0 mm 0 mps 745 mmHg 86%
06:00 +17°C° 0 mm 0 mps 745 mmHg 83%
07:00 +17°C° 0 mm 0 mps 745 mmHg 80%
08:00 +21°C° 0 mm 1 mps 745 mmHg 71%
09:00 +23°C° 0 mm 1 mps 745 mmHg 63%
10:00 +25°C° 0 mm 1 mps 745 mmHg 55%
11:00 +25°C° 0 mm 1 mps 744 mmHg 53%
12:00 +26°C° 0 mm 1 mps 744 mmHg 51%
13:00 +26°C° 0 mm 1 mps 744 mmHg 49%
14:00 +26°C° 0 mm 1 mps 744 mmHg 51%
15:00 +25°C° 0 mm 1 mps 744 mmHg 54%
16:00 +25°C° 0 mm 1 mps 744 mmHg 57%
17:00 +24°C° 0 mm 1 mps 743 mmHg 61%
18:00 +24°C° 0 mm 1 mps 743 mmHg 65%
19:00 +23°C° 0 mm 1 mps 743 mmHg 70%
20:00 +22°C° 0 mm 1 mps 743 mmHg 73%
21:00 +21°C° 0 mm 1 mps 744 mmHg 75%
22:00 +20°C° 0 mm 1 mps 744 mmHg 78%
23:00 +18°C° 0.3 mm 2 mps 744 mmHg 80%
Show more

We Need Your Consent

Meteoprog and our Service Providers may store and access personal data such as cookies, device identifiers or other similar technologies on your device and process such data to personalise content and ads, as well as provide social media features and to analyse the traffic.

  • Store and/or access information on your device

    Cookies, device identifiers or other information can be stored or accessed on your device for the purposes indicated above.

  • Personalised ads and content, ad and content measurement, audience insights, and products development

    Ads and content can be personalised based on a profile. More data can be added to better personalise ads and content. Ad and content performance can be measured. Insights about the audience who saw the ads and content can be derived. Such data can be used to develop or improve user’s experience, systems and software.

By clicking ‘I Agree’ you will allow the use of indicated cookies, device identifiers, web beacons or other similar technologies. Your settings can be changed in the browser on your device.

For certain purposes, legitimate interests may be relied on, rather than consent. You can read more about this in our Privacy and Cookie Policy.